Hourly Weather Bolshie Gory

Today, 31 July, Saturday

Time Temperature Precipitation Wind Pressure Humidity
00:00 +13°C° 0 mm 3 mps 742 mmHg 85%
01:00 +13°C° 0 mm 3 mps 741 mmHg 87%
02:00 +13°C° 0 mm 3 mps 741 mmHg 89%
03:00 +13°C° 0.1 mm 3 mps 741 mmHg 89%
04:00 +13°C° 0.1 mm 3 mps 740 mmHg 88%
05:00 +13°C° 0.1 mm 3 mps 740 mmHg 88%
06:00 +14°C° 0.2 mm 3 mps 740 mmHg 86%
07:00 +15°C° 0.2 mm 4 mps 740 mmHg 84%
08:00 +15°C° 0 mm 4 mps 739 mmHg 85%
09:00 +15°C° 0.5 mm 4 mps 739 mmHg 85%
10:00 +15°C° 0.5 mm 4 mps 739 mmHg 86%
11:00 +17°C° 0.5 mm 3 mps 739 mmHg 87%
12:00 +17°C° 0.2 mm 3 mps 740 mmHg 81%
13:00 +18°C° 0.2 mm 3 mps 740 mmHg 76%
14:00 +18°C° 0 mm 3 mps 740 mmHg 79%
15:00 +18°C° 0 mm 3 mps 741 mmHg 76%
16:00 +19°C° 0 mm 3 mps 741 mmHg 73%
17:00 +19°C° 0 mm 3 mps 742 mmHg 71%
18:00 +18°C° 0.1 mm 3 mps 742 mmHg 76%
19:00 +17°C° 0.1 mm 3 mps 743 mmHg 81%
20:00 +16°C° 0.1 mm 3 mps 743 mmHg 86%
21:00 +16°C° 0 mm 3 mps 743 mmHg 87%
22:00 +14°C° 0 mm 3 mps 744 mmHg 89%
23:00 +13°C° 0 mm 3 mps 744 mmHg 90%

Tomorrow, 1 August, Sunday

Time Temperature Precipitation Wind Pressure Humidity
00:00 +14°C° 0 mm 2 mps 744 mmHg 92%
01:00 +14°C° 0 mm 2 mps 744 mmHg 93%
02:00 +13°C° 0 mm 2 mps 745 mmHg 95%
03:00 +14°C° 0 mm 2 mps 745 mmHg 95%
04:00 +14°C° 0 mm 2 mps 745 mmHg 95%
05:00 +15°C° 0 mm 2 mps 745 mmHg 95%
06:00 +16°C° 0 mm 3 mps 745 mmHg 91%
07:00 +17°C° 0 mm 3 mps 745 mmHg 86%
08:00 +19°C° 0 mm 4 mps 745 mmHg 81%
09:00 +18°C° 0.5 mm 4 mps 745 mmHg 84%
10:00 +18°C° 0.5 mm 4 mps 745 mmHg 86%
11:00 +18°C° 0.5 mm 4 mps 745 mmHg 89%
12:00 +17°C° 1.2 mm 4 mps 745 mmHg 90%
13:00 +17°C° 1.2 mm 3 mps 745 mmHg 91%
14:00 +17°C° 1.2 mm 3 mps 745 mmHg 92%
15:00 +18°C° 0.2 mm 3 mps 745 mmHg 88%
16:00 +18°C° 0.2 mm 3 mps 745 mmHg 85%
17:00 +19°C° 0.2 mm 3 mps 745 mmHg 81%
18:00 +18°C° 0.2 mm 3 mps 744 mmHg 85%
19:00 +17°C° 0.2 mm 3 mps 744 mmHg 89%
20:00 +16°C° 0.2 mm 3 mps 744 mmHg 93%
21:00 +16°C° 0 mm 3 mps 744 mmHg 94%
22:00 +14°C° 0 mm 3 mps 745 mmHg 95%
23:00 +14°C° 0 mm 3 mps 745 mmHg 97%

Day after tomorrow, 2 August, Monday

Time Temperature Precipitation Wind Pressure Humidity
00:00 +14°C° 0 mm 4 mps 745 mmHg 97%
01:00 +14°C° 0 mm 4 mps 745 mmHg 97%
02:00 +14°C° 0 mm 4 mps 745 mmHg 98%
03:00 +14°C° 0 mm 4 mps 746 mmHg 97%
04:00 +15°C° 0 mm 4 mps 746 mmHg 95%
05:00 +15°C° 0 mm 4 mps 746 mmHg 94%
06:00 +15°C° 0 mm 4 mps 746 mmHg 88%
07:00 +17°C° 0 mm 4 mps 747 mmHg 82%
08:00 +17°C° 0 mm 5 mps 747 mmHg 75%
09:00 +19°C° 0 mm 4 mps 747 mmHg 70%
10:00 +20°C° 0 mm 4 mps 747 mmHg 65%
11:00 +21°C° 0 mm 4 mps 747 mmHg 59%
12:00 +21°C° 0 mm 4 mps 747 mmHg 58%
13:00 +21°C° 0 mm 3 mps 747 mmHg 56%
14:00 +21°C° 0 mm 3 mps 746 mmHg 54%
15:00 +21°C° 0 mm 2 mps 746 mmHg 56%
16:00 +20°C° 0 mm 2 mps 746 mmHg 58%
17:00 +20°C° 0 mm 2 mps 746 mmHg 60%
18:00 +19°C° 0.3 mm 2 mps 745 mmHg 69%
19:00 +17°C° 0.3 mm 2 mps 745 mmHg 78%
20:00 +16°C° 0.3 mm 2 mps 745 mmHg 86%
21:00 +16°C° 0.9 mm 2 mps 744 mmHg 90%
22:00 +16°C° 0.9 mm 1 mps 744 mmHg 93%
23:00 +15°C° 0.9 mm 1 mps 744 mmHg 97%

3 August, Tuesday

Time Temperature Precipitation Wind Pressure Humidity
00:00 +15°C° 0.3 mm 1 mps 743 mmHg 97%
01:00 +15°C° 0.3 mm 1 mps 743 mmHg 96%
02:00 +15°C° 0.3 mm 1 mps 743 mmHg 96%
03:00 +15°C° 0 mm 1 mps 743 mmHg 96%
04:00 +15°C° 0 mm 1 mps 743 mmHg 96%
05:00 +14°C° 0 mm 1 mps 743 mmHg 95%
06:00 +15°C° 0 mm 2 mps 743 mmHg 92%
07:00 +16°C° 0 mm 2 mps 743 mmHg 88%
08:00 +17°C° 0 mm 3 mps 743 mmHg 85%
09:00 +18°C° 0 mm 4 mps 744 mmHg 76%
10:00 +19°C° 0 mm 4 mps 744 mmHg 67%
11:00 +20°C° 0 mm 5 mps 744 mmHg 58%
12:00 +21°C° 0.1 mm 5 mps 744 mmHg 56%
13:00 +21°C° 0.1 mm 5 mps 745 mmHg 55%
14:00 +21°C° 0.1 mm 5 mps 745 mmHg 54%
15:00 +21°C° 0.1 mm 5 mps 745 mmHg 56%
16:00 +20°C° 0.1 mm 5 mps 745 mmHg 58%
17:00 +20°C° 0.1 mm 5 mps 746 mmHg 61%
18:00 +17°C° 0 mm 5 mps 746 mmHg 64%
19:00 +16°C° 0 mm 5 mps 747 mmHg 68%
20:00 +14°C° 0 mm 5 mps 748 mmHg 71%
21:00 +13°C° 0 mm 5 mps 748 mmHg 74%
22:00 +12°C° 0 mm 5 mps 749 mmHg 78%
23:00 +10°C° 0 mm 5 mps 749 mmHg 81%

4 August, Wednesday

Time Temperature Precipitation Wind Pressure Humidity
00:00 +10°C° 0 mm 5 mps 750 mmHg 77%
01:00 +10°C° 0 mm 5 mps 750 mmHg 74%
02:00 +9°C° 0 mm 5 mps 751 mmHg 71%
03:00 +10°C° 0 mm 4 mps 751 mmHg 73%
04:00 +10°C° 0 mm 3 mps 752 mmHg 76%
05:00 +10°C° 0 mm 3 mps 752 mmHg 78%
06:00 +12°C° 0 mm 3 mps 753 mmHg 70%
07:00 +14°C° 0 mm 3 mps 753 mmHg 62%
08:00 +17°C° 0 mm 4 mps 754 mmHg 53%
09:00 +18°C° 0 mm 4 mps 754 mmHg 49%
10:00 +19°C° 0 mm 4 mps 754 mmHg 44%
11:00 +19°C° 0 mm 4 mps 754 mmHg 40%
12:00 +19°C° 0 mm 4 mps 755 mmHg 40%
13:00 +20°C° 0 mm 3 mps 755 mmHg 40%
14:00 +20°C° 0 mm 3 mps 755 mmHg 39%
15:00 +19°C° 0 mm 3 mps 755 mmHg 41%
16:00 +19°C° 0 mm 2 mps 755 mmHg 42%
17:00 +19°C° 0 mm 2 mps 755 mmHg 44%
18:00 +17°C° 0 mm 2 mps 756 mmHg 50%
19:00 +15°C° 0 mm 1 mps 756 mmHg 57%
20:00 +14°C° 0 mm 1 mps 756 mmHg 63%
21:00 +14°C° 0 mm 1 mps 756 mmHg 62%
22:00 +14°C° 0 mm 1 mps 756 mmHg 61%
23:00 +14°C° 0 mm 1 mps 757 mmHg 60%

5 August, Thursday

Time Temperature Precipitation Wind Pressure Humidity
00:00 +13°C° 0.3 mm 1 mps 757 mmHg 65%
01:00 +13°C° 0.3 mm 1 mps 757 mmHg 71%
02:00 +12°C° 0.3 mm 2 mps 757 mmHg 76%
03:00 +12°C° 0.3 mm 2 mps 757 mmHg 81%
04:00 +12°C° 0.3 mm 2 mps 757 mmHg 87%
05:00 +10°C° 0.3 mm 3 mps 757 mmHg 92%
06:00 +11°C° 0 mm 3 mps 757 mmHg 91%
07:00 +11°C° 0 mm 3 mps 757 mmHg 91%
08:00 +12°C° 0 mm 3 mps 757 mmHg 90%
09:00 +13°C° 0 mm 3 mps 757 mmHg 85%
10:00 +16°C° 0 mm 3 mps 757 mmHg 81%
11:00 +17°C° 0 mm 3 mps 757 mmHg 76%
12:00 +17°C° 0.2 mm 2 mps 757 mmHg 74%
13:00 +18°C° 0.2 mm 2 mps 757 mmHg 72%
14:00 +19°C° 0.2 mm 2 mps 757 mmHg 70%
15:00 +19°C° 0.2 mm 2 mps 757 mmHg 71%
16:00 +20°C° 0.2 mm 1 mps 757 mmHg 71%
17:00 +20°C° 0.2 mm 1 mps 757 mmHg 71%
18:00 +18°C° 0.1 mm 1 mps 757 mmHg 77%
19:00 +16°C° 0.1 mm 1 mps 757 mmHg 83%
20:00 +15°C° 0.1 mm 1 mps 757 mmHg 89%
21:00 +14°C° 0 mm 1 mps 757 mmHg 91%
22:00 +13°C° 0 mm 2 mps 757 mmHg 93%
23:00 +13°C° 0 mm 2 mps 757 mmHg 95%
Show more

We Need Your Consent

Meteoprog and our Service Providers may store and access personal data such as cookies, device identifiers or other similar technologies on your device and process such data to personalise content and ads, as well as provide social media features and to analyse the traffic.

  • Store and/or access information on your device

    Cookies, device identifiers or other information can be stored or accessed on your device for the purposes indicated above.

  • Personalised ads and content, ad and content measurement, audience insights, and products development

    Ads and content can be personalised based on a profile. More data can be added to better personalise ads and content. Ad and content performance can be measured. Insights about the audience who saw the ads and content can be derived. Such data can be used to develop or improve user’s experience, systems and software.

By clicking ‘I Agree’ you will allow the use of indicated cookies, device identifiers, web beacons or other similar technologies. Your settings can be changed in the browser on your device.

For certain purposes, legitimate interests may be relied on, rather than consent. You can read more about this in our Privacy and Cookie Policy.